Regional Weather Roundup
Issued by NWS

Home | Current Version | Previous Version | Text Only | Print | Product List | Glossary Off
Versions: 1 2 3 4 5 6 7 8 9 10 11 12 13 14 15 16 17 18 19 20 21 22 23 24 25 26 27 28

000
ASUS45 KBOI 240010
RWRID
WEATHER ROUNDUP FOR IDAHO
NATIONAL WEATHER SERVICE BOISE ID
600 PM MDT THU OCT 23 2014

NOTE: "FAIR" INDICATES FEW OR NO CLOUDS BELOW 12000 FEET
WITH NO SIGNIFICANT WEATHER AND/OR OBSTRUCTIONS TO VISIBILITY

IDZ012-014-240100-
SOUTHWEST IDAHO


CITY           SKY/WX    TMP DP  RH WIND       PRES   REMARKS
BOISE          CLOUDY    59  46  62 SE8       30.01R
CALDWELL       CLOUDY    57  45  62 SE7       30.02R
MOUNTAIN HOME  CLOUDY    62  45  53 S9        30.02R
$$

IDZ016-017-240100-
SOUTHCENTRAL IDAHO


CITY           SKY/WX    TMP DP  RH WIND       PRES   REMARKS
BURLEY         CLOUDY    59  38  45 NW5       30.06R
JEROME         CLOUDY    59  39  47 SW3       30.07R
TWIN FALLS     CLOUDY    61  38  42 CALM      30.07R
$$

IDZ019>023-240100-
SOUTHEAST IDAHO


CITY           SKY/WX    TMP DP  RH WIND       PRES   REMARKS
IDAHO FALLS    CLOUDY    58  34  40 SW9       30.07R
POCATELLO      MOCLDY    60  34  37 W5        30.07S
REXBURG        CLOUDY    57  33  40 SW9       30.07R
$$

IDZ006-010-011-018-031-032-240100-
CENTRAL IDAHO MOUNTAINS


CITY           SKY/WX    TMP DP  RH WIND       PRES   REMARKS
MCCALL         LGT RAIN  45  43  93 S8        30.00S
HAILEY         CLOUDY    54  39  58 CALM      30.11R
STANLEY          N/A     47  37  68 S6        30.07S
SALMON         CLOUDY    55  43  62 CALM      29.93R
CHALLIS        CLOUDY    57  36  45 SW3       29.98R
$$

IDZ002-004-006-007-026-240100-
NORTHERN IDAHO


CITY           SKY/WX    TMP DP  RH WIND       PRES   REMARKS
LEWISTON       CLOUDY    55  46  71 N5        29.90R
LOWELL           N/A     53  51  93 VRB6      29.92S
COEUR D`ALENE  CLOUDY    52  46  82 SW10G17   29.84R
MULLAN PASS    LGT RAIN  38  38 100 SW14G28   29.87R FOG     WCI  30
$$



USA.gov is the U.S. government's official web portal to all federal, state and local government web resources and services.